OpenBCM V1.13 (Linux)

Packet Radio Mailbox

DB0FHN

[JN59NK Nuernberg]

 Login: GUEST





  
I6KZR  > KEPLER   15.01.03 21:06l 1460 Lines 39197 Bytes #999 (0) @ WW
BID : 18195_IK6WID
Read: DB0FHN GUEST
Subj: Old Istantrak Keplerians #015
Path: DB0FHN<DB0RGB<DB0FSG<I4UKI<IK5CKL<IK1ZNW<IK6PYS<I6ZLO<IK6WID
Sent: 030115/1913Z @:IK6WID.#AP.IMAR.ITA.EU #:18195 [MONTE URANO]  FBB7.00i
From: I6KZR@IK6WID.#AP.IMAR.ITA.EU
To  : KEPLER@WW


Satellite: OSCAR 7
Catalog number: 07530
Epoch time:      103014.65656427
Element set:     142 
Inclination:      101.7676 deg
RA of node:        62.7629 deg
Eccentricity:    0.0012584
Arg of perigee:   145.8142 deg
Mean anomaly:     214.3745 deg
Mean motion:   12.53563601 rev/day
Decay rate:   -2.9000E-007 rev/day^2
Epoch rev:           28881
Checksum:              295

Satellite: GOES 2
Catalog number: 10061
Epoch time:      103005.42586557
Element set:     46 
Inclination:       14.1214 deg
RA of node:        13.7857 deg
Eccentricity:    0.0013992
Arg of perigee:   196.1981 deg
Mean anomaly:     163.7785 deg
Mean motion:    0.99397401 rev/day
Decay rate:   -2.7099E-006 rev/day^2
Epoch rev:            3839
Checksum:              317

Satellite: GOES 3
Catalog number: 10953
Epoch time:      103014.03483159
Element set:     890 
Inclination:       13.3938 deg
RA of node:        17.5039 deg
Eccentricity:    0.0004480
Arg of perigee:   339.0163 deg
Mean anomaly:      20.9946 deg
Mean motion:    1.00278086 rev/day
Decay rate:   -8.2000E-007 rev/day^2
Epoch rev:            4314
Checksum:              389

Satellite: GOES 6
Catalog number: 14050
Epoch time:      103011.16182477
Element set:     412 
Inclination:       10.3515 deg
RA of node:        35.7729 deg
Eccentricity:    0.0003619
Arg of perigee:   347.7545 deg
Mean anomaly:      12.2152 deg
Mean motion:    1.00290314 rev/day
Decay rate:    6.5000E-007 rev/day^2
Epoch rev:           13025
Checksum:              237

Satellite: OSCAR 10
Catalog number: 14129
Epoch time:      103013.46521539
Element set:     911 
Inclination:       25.8708 deg
RA of node:       170.2888 deg
Eccentricity:    0.6042226
Arg of perigee:   318.8494 deg
Mean anomaly:       8.5240 deg
Mean motion:    2.05869613 rev/day
Decay rate:   -3.1300E-006 rev/day^2
Epoch rev:           11932
Checksum:              367

Satellite: OSCAR 11 (UoSA
Catalog number: 14781
Epoch time:      103015.55691930
Element set:     45 
Inclination:       98.1125 deg
RA of node:       349.2332 deg
Eccentricity:    0.0009166
Arg of perigee:   328.5434 deg
Mean anomaly:      31.5229 deg
Mean motion:   14.77885364 rev/day
Decay rate:    2.1980E-005 rev/day^2
Epoch rev:            1121
Checksum:              299

Satellite: NOAA 10
Catalog number: 16969
Epoch time:      103014.98211748
Element set:     627 
Inclination:       98.7262 deg
RA of node:         9.1720 deg
Eccentricity:    0.0012373
Arg of perigee:   184.1409 deg
Mean anomaly:     175.9671 deg
Mean motion:   14.27048900 rev/day
Decay rate:    2.2500E-006 rev/day^2
Epoch rev:           84897
Checksum:              321

Satellite: GOES 7
Catalog number: 17561
Epoch time:      103013.52827387
Element set:     810 
Inclination:        7.5470 deg
RA of node:        55.7264 deg
Eccentricity:    0.0004064
Arg of perigee:   288.6625 deg
Mean anomaly:     149.4031 deg
Mean motion:    1.00317770 rev/day
Decay rate:    1.1600E-006 rev/day^2
Epoch rev:            4138
Checksum:              275

Satellite: COSMOS 1861
Catalog number: 18129
Epoch time:      103014.88790563
Element set:     192 
Inclination:       82.9236 deg
RA of node:       172.1972 deg
Eccentricity:    0.0011157
Arg of perigee:   330.9698 deg
Mean anomaly:      29.0843 deg
Mean motion:   13.72697037 rev/day
Decay rate:    8.2000E-007 rev/day^2
Epoch rev:           77975
Checksum:              346

Satellite: EUTELSAT 1-F4 
Catalog number: 18351
Epoch time:      103012.43322123
Element set:     26 
Inclination:        7.1229 deg
RA of node:        58.6128 deg
Eccentricity:    0.0004965
Arg of perigee:   185.0153 deg
Mean anomaly:     173.9598 deg
Mean motion:    0.98817566 rev/day
Decay rate:   -2.5599E-006 rev/day^2
Epoch rev:            4231
Checksum:              308

Satellite: NOAA 11
Catalog number: 19531
Epoch time:      103014.92264468
Element set:     465 
Inclination:       98.9072 deg
RA of node:        96.4123 deg
Eccentricity:    0.0011103
Arg of perigee:   303.5553 deg
Mean anomaly:      56.4559 deg
Mean motion:   14.14519514 rev/day
Decay rate:    2.1299E-006 rev/day^2
Epoch rev:           73790
Checksum:              307

Satellite: ASTRA 1A
Catalog number: 19688
Epoch time:      103014.99740913
Element set:     557 
Inclination:        1.3098 deg
RA of node:        95.0777 deg
Eccentricity:    0.0004052
Arg of perigee:   195.2086 deg
Mean anomaly:     188.0162 deg
Mean motion:    1.00274118 rev/day
Decay rate:    5.3999E-007 rev/day^2
Epoch rev:            3185
Checksum:              423

Satellite: OSCAR 14 (UOSA
Catalog number: 20437
Epoch time:      103014.68344904
Element set:     141 
Inclination:       98.2782 deg
RA of node:        59.9552 deg
Eccentricity:    0.0010274
Arg of perigee:   310.2071 deg
Mean anomaly:      49.8212 deg
Mean motion:   14.31224627 rev/day
Decay rate:    1.6799E-006 rev/day^2
Epoch rev:           67750
Checksum:              304

Satellite: OSCAR 15 (UOSA
Catalog number: 20438
Epoch time:      103013.62829575
Element set:     762 
Inclination:       98.2527 deg
RA of node:        48.2320 deg
Eccentricity:    0.0009751
Arg of perigee:   325.6481 deg
Mean anomaly:      34.4068 deg
Mean motion:   14.30186980 rev/day
Decay rate:    1.2599E-006 rev/day^2
Epoch rev:           67702
Checksum:              325

Satellite: OSCAR 16 (PACS
Catalog number: 20439
Epoch time:      103013.72546740
Element set:     837 
Inclination:       98.3234 deg
RA of node:        70.5150 deg
Eccentricity:    0.0010570
Arg of perigee:   319.1090 deg
Mean anomaly:      40.9298 deg
Mean motion:   14.31455537 rev/day
Decay rate:    1.7099E-006 rev/day^2
Epoch rev:           67740
Checksum:              302

Satellite: OSCAR 17 (DOVE
Catalog number: 20440
Epoch time:      103013.93098850
Element set:     737 
Inclination:       98.3431 deg
RA of node:        74.5218 deg
Eccentricity:    0.0010858
Arg of perigee:   317.8663 deg
Mean anomaly:      42.1687 deg
Mean motion:   14.31732035 rev/day
Decay rate:    2.0099E-006 rev/day^2
Epoch rev:           67750
Checksum:              311

Satellite: OSCAR 18 (WEBE
Catalog number: 20441
Epoch time:      103015.52559383
Element set:     988 
Inclination:       98.3405 deg
RA of node:        75.2884 deg
Eccentricity:    0.0011257
Arg of perigee:   314.1003 deg
Mean anomaly:      45.9255 deg
Mean motion:   14.31538780 rev/day
Decay rate:    2.1200E-006 rev/day^2
Epoch rev:           67771
Checksum:              302

Satellite: OSCAR 19 (LUSA
Catalog number: 20442
Epoch time:      103014.24992289
Element set:     939 
Inclination:       98.3540 deg
RA of node:        77.0230 deg
Eccentricity:    0.0011782
Arg of perigee:   316.6349 deg
Mean anomaly:      43.3907 deg
Mean motion:   14.31700383 rev/day
Decay rate:    1.8800E-006 rev/day^2
Epoch rev:           67758
Checksum:              315

Satellite: JAS 1B (FUJI 2
Catalog number: 20480
Epoch time:      103014.85457318
Element set:     455 
Inclination:       99.0414 deg
RA of node:       344.1384 deg
Eccentricity:    0.0540907
Arg of perigee:    82.4872 deg
Mean anomaly:     283.7338 deg
Mean motion:   12.83328115 rev/day
Decay rate:    1.3000E-007 rev/day^2
Epoch rev:           60606
Checksum:              383

Satellite: HST
Catalog number: 20580
Epoch time:      103015.11154948
Element set:     298 
Inclination:       28.4660 deg
RA of node:       261.9010 deg
Eccentricity:    0.0004067
Arg of perigee:   261.5436 deg
Mean anomaly:     218.1260 deg
Mean motion:   14.97672362 rev/day
Decay rate:    3.5580E-005 rev/day^2
Epoch rev:           49746
Checksum:              297

Satellite: EUTELSAT 2-F1
Catalog number: 20777
Epoch time:      103013.93985752
Element set:     14 
Inclination:        3.4164 deg
RA of node:        84.8546 deg
Eccentricity:    0.0001561
Arg of perigee:   156.0645 deg
Mean anomaly:     286.4894 deg
Mean motion:    1.00271827 rev/day
Decay rate:   -8.2000E-007 rev/day^2
Epoch rev:            2574
Checksum:              294

Satellite: FENGYUN 1B
Catalog number: 20788
Epoch time:      103015.56692020
Element set:     858 
Inclination:       99.0228 deg
RA of node:       358.0881 deg
Eccentricity:    0.0015362
Arg of perigee:   325.7021 deg
Mean anomaly:      34.3152 deg
Mean motion:   14.02140145 rev/day
Decay rate:    9.5000E-007 rev/day^2
Epoch rev:           63277
Checksum:              280

Satellite: EUTELSAT 2-F2
Catalog number: 21056
Epoch time:      103015.13799191
Element set:     610 
Inclination:        2.6484 deg
RA of node:        88.2265 deg
Eccentricity:    0.0002557
Arg of perigee:   220.6689 deg
Mean anomaly:     263.3892 deg
Mean motion:    1.00276352 rev/day
Decay rate:    1.3699E-006 rev/day^2
Epoch rev:            3153
Checksum:              296

Satellite: INFORMATOR 1
Catalog number: 21087
Epoch time:      103015.06461279
Element set:     591 
Inclination:       82.9411 deg
RA of node:       342.9553 deg
Eccentricity:    0.0035785
Arg of perigee:   349.3789 deg
Mean anomaly:      10.6608 deg
Mean motion:   13.74922286 rev/day
Decay rate:    7.7999E-007 rev/day^2
Epoch rev:           60014
Checksum:              338

Satellite: COSMOS 2123
Catalog number: 21089
Epoch time:      103013.94162367
Element set:     491 
Inclination:       82.9204 deg
RA of node:       207.8059 deg
Eccentricity:    0.0030576
Arg of perigee:    27.3930 deg
Mean anomaly:     332.8837 deg
Mean motion:   13.74400251 rev/day
Decay rate:    7.4000E-007 rev/day^2
Epoch rev:           59889
Checksum:              314

